Orbital Elements
Epoch 2020 May 31.0 TT = JDT 2459000.5
T 2020 May 20.17412 TT Rudenko
q 3.9286459 (2000.0) P Q
z +0.0006607 Peri. 187.61577 -0.78645642 -0.35805212
+/-0.0000012 Node 42.94005 -0.52056803 +0.82278315
e 0.9974045 Incl. 132.37327 -0.33240824 -0.44139164
From 284 observations 2019 May 7-2020 May 29, mean residual 0".4.
|